Miscellaneous Local Product
Issued by NWS North Platte, NE

Home | Current Version | Previous Version | Text Only | Print | Product List | Glossary On
Versions: 1 2 3 4 5 6 7 8 9 10 11 12 13 14 15 16 17 18 19 20 21 22 23 24 25 26 27 28 29 30 31 32 33 34 35 36 37 38 39 40 41 42 43 44 45 46 47 48 49 50
000
AXUS43 KLBF 302210
MISLBF


WESTERN AND NORTH CENTRAL NEBRASKA HOURLY WEATHER ROUNDUP
NATIONAL WEATHER SERVICE NORTH PLATTE NE
500 PM CDT THU JUL 30 2015

***STATIONS NOT REPORTING VARIABLES SUCH AS SKY/WEATHER OR
PRESSURE ARE PROVIDED BY THE NEBRASKA DEPARTMENT OF
ROADS...RAWS...AND APRS NETWORKS...AND ARE NOT UNDER
NATIONAL WEATHER SERVICE QUALITY CONTROL***

...OBSERVATIONS IN AND NEAR THE EASTERN PANHANDLE OF NEBRASKA...

CITY           SKY/WX    TMP DP  RH WIND       PRES   REMARKS
PINE RIDGE     SUNNY     88  45  22 VRB3      30.23F
CHADRON        SUNNY     91  44  19 NE9       30.21F
ALLIANCE       SUNNY     89  51  27 E10       30.23F
SIDNEY         MOSUNNY   85  56  37 SE5       30.24F THUNDER
BIG SPRINGS      N/A     86  64  47 S5          N/A
$$

...OBSERVATIONS IN NORTH CENTRAL NEBRASKA...

CITY           SKY/WX    TMP DP  RH WIND       PRES   REMARKS
VALENTINE      SUNNY     92  41  17 N10       30.17F
THEDFORD       PTSUNNY   87  60  39 NE10      30.19F
AINSWORTH      SUNNY     90  50  25 N3        30.17F
O`NEILL        PTSUNNY   90  55  31 NW3       30.15F
ORD            MOSUNNY   89  60  37 SW12      30.14F
BROKEN BOW     SUNNY     89  62  40 SW8       30.18F
SPRINGVIEW       N/A     90  54  29 NE7G14      N/A
CHAMBERS         N/A     91  59  34 S7          N/A  HX  90
EWING            N/A     89  64  43 S5G12       N/A  HX  90
$$

...OBSERVATIONS IN SOUTHWEST NEBRASKA AND FAR NORTHEAST COLORADO...

CITY           SKY/WX    TMP DP  RH WIND       PRES   REMARKS
WRAY           FAIR      94  50  22 S8G21     30.21F HX  91
IMPERIAL       PTSUNNY   89  54  30 S7        30.20F
OGALLALA       SUNNY     90  56  31 SE8G16    30.19F
NORTH PLATTE   SUNNY     89  58  34 S7        30.18F
MCCOOK         SUNNY     92  55  28 SE9       30.17F HX  90
LEXINGTON      SUNNY     89  60  38 SW7       30.19F
PAXTON           N/A     87  63  44 E3          N/A
BRADY            N/A     88  61  40 CALM        N/A
CALLAWAY         N/A     87  70  56 S7          N/A  HX  91
$$

...NORTH PLATTE AREA...

CITY           SKY/WX    TMP DP  RH WIND       PRES   REMARKS
AIRPORT        SUNNY     89  58  34 S7        30.18F
DOWNTOWN         N/A     90  58  34 S3G12       N/A
SANDRIDGE        N/A     90  56  31 S5G12       N/A
HILLCREST        N/A     90  53  28 S7G15       N/A
$$

...SOME WEATHER OBSERVATIONS FROM AROUND THE REGION...

CITY           SKY/WX    TMP DP  RH WIND       PRES   REMARKS
DENVER         MOSUNNY   90  39  16 NE12      30.28F
LARAMIE        SUNNY     80  23  12 VRB3      30.43F
CHEYENNE       SUNNY     83  39  21 S7        30.36F
SCOTTSBLUFF    SUNNY     90  44  20 E7        30.24F
RAPID CITY     SUNNY     87  46  24 N6        30.22F
PIERRE         SUNNY     91  43  18 W6        30.11F
WINNER         FAIR      92  48  22 NW8       30.15F
SIOUX FALLS    MOSUNNY   86  57  37 NW6       30.12F
OMAHA          MOSUNNY   91  57  31 W6G16     30.13F
GRAND ISLAND   SUNNY     89  63  41 VRB7      30.18F HX  90
KANSAS CITY    PTSUNNY   83  63  50 W5        30.16F
WICHITA        MOSUNNY   84  69  60 SE6       30.15F
HAYS           PTSUNNY   84  64  51 S3        30.17F
LIBERAL        PTSUNNY   81  66  61 S6        30.21F
GOODLAND       SUNNY     88  58  36 SE10G20   30.23F
$$



USA.gov is the U.S. government's official web portal to all federal, state and local government web resources and services.